Location: Unspecified
(0.0000°N, 0.0000°E)
Time: 12:34:14
(UTC+00:00)

ATLAS 5 CENTAUR R/B - Visible Passes

Search period start: 25 January 2026 00:00
Search period end: 04 February 2026 00:00
Orbit: 20660 x 21496 km, 55.2° (Epoch: 22 January)

Date Brightness Start Highest point End Pass type
(mag) Time Alt. Az. Time Alt. Az. Time Alt. Az.
26 Jan ? 00:14:03 10° SW 02:20:30 33° W 10:40:45 10° SE visible
27 Jan ? 02:39:45 10° WSW 04:36:55 13° NW 12:20:08 10° SSE visible
29 Jan ? 08:57:45 10° NNW 11:52:45 71° W 16:05:06 10° SE visible
30 Jan ? 10:34:18 10° NNW 19:06:41 27° E 20:59:59 10° NE visible
31 Jan ? 12:21:02 10° NW 20:23:01 48° E 22:47:03 10° NE visible
1 Feb ? 17:40:52 10° SW 21:36:19 71° E 00:23:34 10° NNE visible
2 Feb ? 19:42:04 10° SSW 22:48:49 85° W 02:02:29 10° NNE visible
